Torna al catalogo

STARLINK-34310

AttivoComunicazioniVLEO
NORAD 64210·PAYLOAD·🇺🇸 United States

Lanciato May 31, 2025 da Vandenberg Space Force Base

Loading…

Prossimi Passaggi (prossime 24 ore)

TLE

AggiornatoSource: CelesTrak SupGP

Epoca: Sep 15, 2026, 04:01 UTC

1 64210C 25117H   26258.16784722 -.00054343  00000+0 -16057-2 0  2588
2 64210  53.1574 238.4600 0001389  90.5331 149.0402 15.34415074    10

Traccia STARLINK-34310 in tempo reale con AllMySat

Download on the App Store